Pecos, TX

5:22 AM CST on December 17, 2017 (GMT -0600)
Pecos Municipal

Weather History for KPEQ - November, 2010

Change the Weather History Date:

Monday, November 15, 2010

  Actual Average Record
Temperature  
Mean Temperature 56 °F -  
Max Temperature 72 °F 70 °F 89 °F (1981)
Min Temperature 39 °F 34 °F 12 °F (1976)
Degree Days  
Heating Degree Days 10    
Growing Degree Days 6 (Base 50)    
Moisture  
Dew Point 20 °F    
Average Humidity 23    
Maximum Humidity 44    
Minimum Humidity 15    
Precipitation  
Precipitation 0.00 in - - ()
Sea Level Pressure  
Sea Level Pressure 29.75 in    
Wind  
Wind Speed 12 mph (West)    
Max Wind Speed 30 mph    
Max Gust Speed 38 mph    
Visibility 10 miles    
Events      
Averages and records for this station are not official NWS values.
T = Trace of Precipitation, MM = Missing Value Source: NWS Daily Summary

Daily Weather History Graph

Daily Weather History Graph

Search for Another Location

Airport or City:

Trip Planner

Search our weather history database for the weather conditions in past years. The results will help you decide how hot, cold, wet, or windy it might be!

Date:

Astronomy

Nov. 15, 2010 Rise Set
Actual Time 7:21 AM CST 5:55 PM CST
Civil Twilight 6:55 AM CST 6:21 PM CST
Nautical Twilight 6:26 AM CST 6:50 PM CST
Astronomical Twilight 5:57 AM CST 7:19 PM CST
Moon 2:20 PM CST (11/15) 1:50 AM CST (11/15)
Length of Visible Light 11h 25m
Length of Day
10h 33m
Waxing Gibbous, 69% of the Moon is Illuminated
Nov 15
Waxing Gibbous
Nov 21
Full
Nov 28
Last Quarter
Dec 5
New
Dec 13
First Quarter

Hourly Weather History & Observations

Time (CST) Temp. Windchill Dew Point Humidity Pressure Visibility Wind Dir Wind Speed Gust Speed Precip Events Conditions
12:05 AM 50.0 °F - 20.3 °F 31% 29.80 in 10.0 mi SW 8.1 mph - N/A   Clear
12:25 AM 49.1 °F - 20.7 °F 33% 29.79 in 10.0 mi SW 6.9 mph - N/A   Clear
12:45 AM 49.1 °F - 20.7 °F 33% 29.78 in 10.0 mi SW 4.6 mph - N/A   Clear
1:05 AM 46.9 °F - 19.9 °F 34% 29.78 in 10.0 mi WSW 4.6 mph - N/A   Clear
1:25 AM 43.9 °F - 19.0 °F 37% 29.78 in 10.0 mi Calm Calm - N/A   Clear
1:45 AM 44.6 °F - 20.3 °F 38% 29.77 in 10.0 mi Calm Calm - N/A   Clear
2:25 AM 41.9 °F - 19.9 °F 42% 29.76 in 10.0 mi Calm Calm - N/A   Clear
2:45 AM 39.2 °F - 18.1 °F 43% 29.76 in 10.0 mi Calm Calm - N/A   Clear
3:05 AM 39.4 °F 37.2 °F 19.0 °F 44% 29.76 in 10.0 mi WSW 3.5 mph - N/A   Clear
3:25 AM 45.0 °F 41.2 °F 21.0 °F 39% 29.75 in 10.0 mi WSW 6.9 mph - N/A   Clear
3:45 AM 48.0 °F - 21.2 °F 35% 29.75 in 10.0 mi SW 9.2 mph - N/A   Clear
4:05 AM 49.3 °F - 21.6 °F 34% 29.75 in 10.0 mi SW 5.8 mph - N/A   Clear
4:25 AM 53.2 °F - 22.8 °F 31% 29.74 in 10.0 mi SW 12.7 mph - N/A   Clear
4:45 AM 55.4 °F - 22.6 °F 28% 29.74 in 10.0 mi SW 10.4 mph - N/A   Clear
5:05 AM 55.4 °F - 22.5 °F 28% 29.74 in 10.0 mi SW 9.2 mph - N/A   Clear
5:25 AM 53.4 °F - 22.1 °F 30% 29.73 in 10.0 mi SSW 8.1 mph - N/A   Clear
5:45 AM 56.8 °F - 21.4 °F 25% 29.73 in 10.0 mi WSW 15.0 mph 19.6 mph N/A   Clear
6:05 AM 57.4 °F - 20.3 °F 24% 29.74 in 10.0 mi West 11.5 mph - N/A   Clear
6:25 AM 54.0 °F - 20.3 °F 27% 29.74 in 10.0 mi West 9.2 mph - N/A   Clear
6:45 AM 54.5 °F - 19.9 °F 26% 29.75 in 10.0 mi WSW 13.8 mph - N/A   Clear
7:05 AM 53.1 °F - 19.2 °F 27% 29.75 in 10.0 mi WSW 10.4 mph - N/A   Clear
7:25 AM 52.9 °F - 18.5 °F 26% 29.76 in 10.0 mi WSW 12.7 mph - N/A   Clear
7:45 AM 52.2 °F - 18.1 °F 26% 29.76 in 10.0 mi SW 12.7 mph - N/A   Clear
8:05 AM 54.0 °F - 16.7 °F 23% 29.77 in 10.0 mi WSW 11.5 mph - N/A   Clear
8:25 AM 56.5 °F - 16.7 °F 21% 29.77 in 10.0 mi West 15.0 mph 21.9 mph N/A   Clear
8:45 AM 61.9 °F - 16.0 °F 17% 29.78 in 7.0 mi West 27.6 mph 33.4 mph N/A   Clear
9:05 AM 62.6 °F - 15.8 °F 16% 29.77 in 10.0 mi West 28.8 mph 34.5 mph N/A   Clear
9:25 AM 63.5 °F - 15.8 °F 16% 29.78 in 10.0 mi West 25.3 mph 34.5 mph N/A   Clear
9:45 AM 64.6 °F - 16.7 °F 16% 29.78 in 10.0 mi West 24.2 mph 31.1 mph N/A   Clear
10:05 AM 65.5 °F - 17.4 °F 16% 29.79 in 5.0 mi West 29.9 mph 36.8 mph N/A   Haze
10:25 AM 66.2 °F - 17.6 °F 15% 29.79 in 5.0 mi West 29.9 mph 34.5 mph N/A   Haze
10:45 AM 66.2 °F - 17.1 °F 15% 29.79 in 7.0 mi West 25.3 mph 34.5 mph N/A   Clear
11:05 AM 66.6 °F - 17.6 °F 15% 29.78 in 5.0 mi West 23.0 mph 38.0 mph N/A   Haze
11:25 AM 67.3 °F - 18.3 °F 15% 29.77 in 10.0 mi West 28.8 mph 34.5 mph N/A   Scattered Clouds
11:45 AM 68.2 °F - 18.5 °F 15% 29.77 in 10.0 mi West 29.9 mph 35.7 mph N/A   Mostly Cloudy
12:05 PM 66.9 °F - 18.0 °F 15% 29.75 in 10.0 mi West 23.0 mph 29.9 mph N/A   Overcast
12:25 PM 67.3 °F - 18.5 °F 15% 29.74 in 10.0 mi West 18.4 mph - N/A   Mostly Cloudy
12:45 PM 68.9 °F - 19.2 °F 15% 29.73 in 10.0 mi West 18.4 mph 23.0 mph N/A   Scattered Clouds
1:05 PM 69.1 °F - 19.2 °F 15% 29.72 in 10.0 mi West 23.0 mph 33.4 mph N/A   Clear
1:25 PM 68.2 °F - 19.8 °F 16% 29.71 in 10.0 mi West 26.5 mph 34.5 mph N/A   Clear
1:45 PM 70.2 °F - 20.3 °F 15% 29.70 in 10.0 mi WSW 26.5 mph 36.8 mph N/A   Clear
2:05 PM 71.6 °F - 20.5 °F 15% 29.69 in 10.0 mi West 25.3 mph 34.5 mph N/A   Clear
2:25 PM 71.1 °F - 20.1 °F 15% 29.69 in 10.0 mi West 26.5 mph 35.7 mph N/A   Clear
2:45 PM 70.3 °F - 20.5 °F 15% 29.70 in 10.0 mi West 21.9 mph 32.2 mph N/A   Scattered Clouds
3:05 PM 71.2 °F - 21.0 °F 15% 29.70 in 10.0 mi WNW 23.0 mph 32.2 mph N/A   Scattered Clouds
3:25 PM 71.4 °F - 21.2 °F 15% 29.70 in 10.0 mi West 24.2 mph 31.1 mph N/A   Scattered Clouds
3:45 PM 71.6 °F - 21.4 °F 15% 29.70 in 10.0 mi West 24.2 mph 29.9 mph N/A   Scattered Clouds
4:05 PM 71.1 °F - 21.6 °F 15% 29.70 in 10.0 mi West 23.0 mph 33.4 mph N/A   Scattered Clouds
4:25 PM 72.1 °F - 21.9 °F 15% 29.71 in 10.0 mi WNW 20.7 mph 26.5 mph N/A   Mostly Cloudy
4:45 PM 70.9 °F - 22.5 °F 16% 29.71 in 10.0 mi NW 12.7 mph 17.3 mph N/A   Overcast
5:05 PM 68.9 °F - 22.8 °F 18% 29.72 in 10.0 mi WNW 9.2 mph - N/A   Mostly Cloudy
5:25 PM 68.9 °F - 23.0 °F 18% 29.73 in 10.0 mi North 12.7 mph 19.6 mph N/A   Mostly Cloudy
5:45 PM 67.5 °F - 23.0 °F 19% 29.74 in 10.0 mi NW 6.9 mph - N/A   Overcast
6:05 PM 66.0 °F - 23.5 °F 20% 29.75 in 10.0 mi WNW 6.9 mph - N/A   Overcast
6:25 PM 63.9 °F - 23.7 °F 22% 29.76 in 10.0 mi WNW 6.9 mph - N/A   Mostly Cloudy
6:45 PM 63.7 °F - 23.5 °F 22% 29.77 in 10.0 mi WNW 6.9 mph - N/A   Mostly Cloudy
7:05 PM 61.5 °F - 23.7 °F 24% 29.79 in 10.0 mi West 4.6 mph - N/A   Mostly Cloudy
7:25 PM 57.6 °F - 23.0 °F 26% 29.80 in 10.0 mi West 6.9 mph - N/A   Scattered Clouds
7:45 PM 59.0 °F - 22.1 °F 24% 29.82 in 10.0 mi West 8.1 mph - N/A   Overcast
8:05 PM 60.3 °F - 22.1 °F 23% 29.84 in 10.0 mi West 6.9 mph - N/A   Overcast
8:25 PM 59.4 °F - 22.6 °F 24% 29.85 in 10.0 mi West 10.4 mph - N/A   Overcast
8:45 PM 59.5 °F - 24.3 °F 26% 29.86 in 10.0 mi West 10.4 mph - N/A   Overcast
9:05 PM 59.0 °F - 25.7 °F 28% 29.86 in 10.0 mi West 9.2 mph - N/A   Mostly Cloudy
9:25 PM 58.3 °F - 25.5 °F 28% 29.88 in 10.0 mi West 9.2 mph - N/A   Scattered Clouds
9:45 PM 57.9 °F - 25.9 °F 29% 29.90 in 10.0 mi North 9.2 mph - N/A   Mostly Cloudy
10:25 PM 57.7 °F - 23.5 °F 27% 29.92 in 10.0 mi North 4.6 mph - N/A   Mostly Cloudy
10:45 PM 55.6 °F - 23.7 °F 29% 29.92 in 10.0 mi Calm Calm - N/A   Scattered Clouds
11:05 PM 55.4 °F - 24.1 °F 30% 29.93 in 10.0 mi NNE 3.5 mph - N/A   Clear
11:25 PM 51.4 °F - 23.4 °F 33% 29.93 in 10.0 mi NNE 4.6 mph - N/A   Clear
11:45 PM 51.8 °F - 23.9 °F 34% 29.95 in 10.0 mi NNE 3.5 mph - N/A   Clear